W5MAI Weather Reports


Display with metric or nautical units.
time (UTC)temp
F
wind
direction
speed
MPH
gust
MPH
rain 1hr
in
rain 24hr
in
rain mn
in
humidity
%
barometer
mb
20260502194416 72 5 2.0 6.0 0.00 0.24 0.00 46 1023.0
20260502193346 72 51 3.0 11.0 0.00 0.24 0.00 50 1023.0
20260502192409 72 53 2.0 7.0 0.00 0.24 0.00 45 1023.0
20260502191335 72 55 1.0 5.0 0.00 0.24 0.00 50 1023.0
20260502190342 71 360 1.0 9.0 0.00 0.24 0.00 51 1023.1
20260502185411 71 345 1.0 6.0 0.00 0.27 0.00 52 1023.4
20260502184416 70 341 2.0 5.0 0.00 0.27 0.00 52 1023.4
20260502183420 69 82 2.0 9.0 0.00 0.27 0.00 54 1023.4
20260502181343 70 338 1.0 6.0 0.00 0.27 0.00 58 1023.7
20260502180415 70 29 3.0 10.0 0.00 0.27 0.00 56 1023.7
20260502170416 68 5 1.0 8.0 0.00 0.48 0.00 60 1024.6
20260502162353 66 340 2.0 9.0 0.00 0.49 0.00 62 1024.8
20260502161421 66 55 1.0 8.0 0.00 0.49 0.00 60 1024.9
20260502151333 63 55 2.0 9.0 0.00 0.53 0.00 67 1024.4
20260502130356 51 345 0.0 1.0 0.00 0.65 0.00 96 1023.2
20260502123413 45 345 0.0 0.0 0.00 0.68 0.00 95 1022.8
20260502122350 44 345 0.0 0.0 0.00 0.68 0.00 95 1022.7
20260502121411 44 345 0.0 1.0 0.00 0.68 0.00 94 1022.5
20260502120340 44 345 0.0 0.0 0.00 0.68 0.00 94 1022.1
20260502115414 44 345 0.0 0.0 0.00 0.76 0.00 94 1022.0
20260502114324 44 345 0.0 0.0 0.00 0.76 0.00 94 1022.0
20260502113351 44 345 0.0 0.0 0.00 0.76 0.00 94 1022.0
20260502112413 44 345 0.0 0.0 0.00 0.76 0.00 94 1021.9
20260502111334 45 345 0.0 1.0 0.00 0.76 0.00 94 1021.8
20260502110338 45 345 0.0 0.0 0.00 0.76 0.00 94 1021.8
20260502105354 45 345 0.0 0.0 0.00 0.99 0.00 94 1021.8
20260502104325 45 345 0.0 0.0 0.00 0.99 0.00 93 1021.6
20260502103329 45 345 0.0 0.0 0.00 0.99 0.00 93 1021.4
20260502102351 46 345 0.0 0.0 0.00 0.99 0.00 94 1021.4
20260502101358 46 345 0.0 0.0 0.00 0.99 0.00 93 1021.3
20260502100422 46 345 0.0 0.0 0.00 0.99 0.00 93 1021.1
20260502091347 48 345 0.0 0.0 0.00 1.15 0.00 93 1020.1
20260502090402 48 345 0.0 1.0 0.00 1.15 0.00 93 1020.1
20260502071420 50 345 0.0 0.0 0.00 1.48 0.00 93 1019.6
20260502070336 50 345 0.0 0.0 0.00 1.48 0.00 92 1019.7
20260502065329 50 345 0.0 2.0 0.00 1.60 0.00 92 1019.8
20260502064333 51 327 0.0 0.0 0.00 1.60 0.00 93 1019.9
20260502063344 51 327 0.0 1.0 0.00 1.60 0.00 93 1019.7
20260502062328 51 355 0.0 2.0 0.00 1.60 0.00 92 1019.6
20260502061331 51 355 0.0 0.0 0.00 1.60 0.00 92 1019.7
20260502060343 51 355 0.0 1.0 0.00 1.60 0.00 92 1019.8
20260502055327 51 13 0.0 1.0 0.00 1.90 0.00 92 1019.7
20260502054330 51 32 0.0 1.0 0.00 1.90 0.00 91 1019.7
20260502053340 51 28 0.0 3.0 0.00 1.90 0.00 91 1019.8
20260502052323 52 355 0.0 1.0 0.00 1.90 0.00 91 1020.0
20260502051326 52 355 0.0 1.0 0.00 1.90 0.00 90 1020.1
20260502050337 52 355 0.0 2.0 0.00 1.90 0.00 90 1020.0
20260502045416 52 5 0.0 1.0 0.00 1.90 1.90 90 1019.9
20260502044332 52 9 0.0 2.0 0.00 1.90 1.90 90 1019.8
20260502043342 53 33 0.0 4.0 0.00 1.90 1.90 90 1019.8
20260502042355 53 27 1.0 3.0 0.00 1.90 1.90 90 1019.6
20260502041359 53 5 1.0 5.0 0.00 1.90 1.90 89 1019.5
20260502040331 53 355 1.0 4.0 0.00 1.90 1.90 89 1019.5
20260502035400 53 30 1.0 4.0 0.00 1.90 1.90 88 1019.5
20260502034406 53 38 1.0 6.0 0.00 1.90 1.90 89 1019.5
20260502033337 53 17 2.0 8.0 0.00 1.90 1.90 89 1019.4
20260502032408 53 29 2.0 6.0 0.00 1.90 1.90 90 1019.4
20260502031337 53 29 1.0 4.0 0.00 1.90 1.90 90 1019.3
20260502030410 53 330 1.0 6.0 0.00 1.90 1.90 91 1019.0
20260502025327 53 18 1.0 8.0 0.00 1.90 1.90 90 1018.9
20260502024402 53 355 2.0 4.0 0.00 1.90 1.90 90 1018.7
20260502023418 53 48 1.0 5.0 0.00 1.90 1.90 90 1018.5
20260502015352 53 43 2.0 9.0 0.00 1.90 1.90 91 1017.9
20260502014421 53 315 1.0 9.0 0.00 1.90 1.90 91 1017.7
20260502013340 54 323 3.0 13.0 0.00 1.90 1.90 92 1017.6
20260502012406 54 355 3.0 9.0 0.00 1.90 1.90 92 1017.6
20260502011420 54 342 2.0 8.0 0.00 1.90 1.90 93 1017.5
20260502005347 55 87 1.0 10.0 0.00 1.90 1.90 94 1017.0
20260502004417 55 64 2.0 6.0 0.00 1.90 1.90 94 1016.9
20260502003336 55 63 2.0 6.0 0.00 1.90 1.90 95 1016.6
20260502002410 55 84 1.0 5.0 0.00 1.90 1.90 95 1016.3
20260502001343 55 16 2.0 7.0 0.00 1.90 1.90 95 1016.0
20260502000348 56 31 2.0 8.0 0.00 1.90 1.90 95 1015.9
20260501235414 56 47 3.0 9.0 0.00 1.90 1.90 95 1015.8
20260501234335 56 348 2.0 6.0 0.00 1.90 1.90 95 1015.6
20260501233409 56 34 2.0 5.0 0.00 1.90 1.90 95 1015.3
20260501232418 56 22 2.0 9.0 0.00 1.90 1.90 95 1015.0
20260501230329 57 67 2.0 6.0 0.00 1.90 1.90 95 1014.8
20260501225331 57 67 1.0 6.0 0.00 1.90 1.90 95 1014.7
20260501224404 57 347 2.0 8.0 0.00 1.90 1.90 95 1014.6
20260501223324 57 329 1.0 4.0 0.00 1.90 1.90 96 1014.9
20260501222349 57 46 1.0 8.0 0.02 1.90 1.90 95 1014.7
20260501221326 57 329 3.0 9.0 0.05 1.90 1.90 95 1014.8
20260501220350 58 5 2.0 8.0 0.07 1.90 1.90 96 1014.5
20260501215416 58 13 1.0 8.0 0.09 1.90 1.90 96 1014.5
20260501213348 58 80 1.0 10.0 0.10 1.90 1.90 96 1013.8
20260501212422 58 52 1.0 4.0 0.11 1.89 1.89 96 1014.1
20260501211338 58 360 1.0 4.0 0.13 1.85 1.85 95 1014.5
20260501210411 58 16 1.0 7.0 0.16 1.83 1.83 95 1014.7
20260501205328 58 78 1.0 5.0 0.14 1.81 1.81 96 1013.9
20260501204358 58 355 1.0 6.0 0.15 1.81 1.81 96 1014.0
20260501203416 58 10 2.0 8.0 0.14 1.80 1.80 95 1014.1
20260501201345 59 346 1.0 5.0 0.05 1.71 1.71 95 1013.8
20260501200414 59 17 2.0 6.0 0.01 1.67 1.67 95 1013.4
20260501195343 60 78 2.0 7.0 0.01 1.67 1.67 96 1012.6